Estación Meteorológica Peña el Pijo (Robertgarden) [ 11/14/19 13:41:31 CET ]

Fecha Hora Presion(HPa) Temp (°C) Humedad % Rocio (°C) Viento ( m/s) Direccion Lluvia 1Hora(mm) Lluvia 24H(mm) LLuvia Total(mm)
2019-Jun-21 01:08:56 1007.600 - - - - WSW     330.48
2019-Jun-21 02:09:28 1007.500 - - - - WSW     330.48
2019-Jun-21 03:10:03 1007.400 - - - - WSW     330.48
2019-Jun-21 04:10:48 1007.400 - - - - WSW     330.48
2019-Jun-21 05:08:57 1007.500 - - - - WSW     330.48
2019-Jun-21 06:09:14 1007.600 - - - - WSW     330.48
2019-Jun-21 07:09:47 1008.000 - - - - WSW     330.48
2019-Jun-21 08:09:41 1008.200 - - - - WSW     330.48
2019-Jun-21 09:09:26 1008.200 - - - - WSW     330.48
2019-Jun-21 10:08:51 1008.200 - - - - WSW     330.48
2019-Jun-21 11:09:28 1007.900 - - - - WSW     330.48
2019-Jun-21 12:08:39 1007.700 - - - - WSW     330.48
2019-Jun-21 13:09:13 1007.700 - - - - WSW     330.48
2019-Jun-21 14:08:48 1007.300 - - - - WSW     330.48
2019-Jun-21 15:09:22 1007.200 - - - - WSW     330.48
2019-Jun-21 16:09:52 1006.700 - - - - WSW     330.48
2019-Jun-21 17:09:07 1006.800 - - - - WSW     330.48
2019-Jun-21 18:09:14 1006.700 - - - - WSW     330.48
2019-Jun-21 19:08:54 1006.800 - - - - WSW     330.48
2019-Jun-21 20:09:23 1007.200 - - - - WSW     330.48
2019-Jun-21 21:09:24 1008.000 - - - - WSW     330.48
2019-Jun-21 22:09:23 1008.500 - - - - WSW     330.48
2019-Jun-21 23:09:06 1009.400 - - - - WSW     330.48

Temperatura Máxima:    Temperatura Mínima:
Presión Máxima:1009.400 Hpa    Presión Mínima:1006.700 Hpa


Volver